Simultaneous Nadir Overpasses (SNOs) Predictions

Prediction of SNOs between NOAA-21 and PACE Satellite Orbit:

Table of predicted SNOs for the next 14.0 days since TLE Epoch: 1/24/2025
Index Date (NOAA-21) Time (NOAA-21) Lat,Lon (NOAA-21) SZA (NOAA-21 ) Date (PACE) Time (PACE) Lat,Lon (PACE) SZA (PACE ) Distance(km) Time Diff (sec)
1 01/25/2025 03:19:45 80.04, 91.19 101.36 01/25/2025 03:20:06 80.04, 91.11 101.35 1.60 21
2 01/25/2025 04:10:16 -79.64, -97.70 79.38 01/25/2025 04:09:02 -79.58, -97.75 79.39 6.35 74
3 01/27/2025 07:46:05 80.06, 24.41 100.85 01/27/2025 07:45:59 80.05, 24.55 100.84 2.62 6
4 01/29/2025 11:21:40 -80.10, 150.11 79.63 01/29/2025 11:22:42 -80.10, 149.95 79.64 3.10 62
5 01/29/2025 12:12:22 79.99, -41.52 100.17 01/29/2025 12:11:49 79.99, -41.44 100.17 1.61 33
6 01/31/2025 15:47:57 -80.04, 84.12 80.33 01/31/2025 15:48:31 -80.05, 83.97 80.33 2.93 34
7 01/31/2025 16:38:39 79.94,-107.53 99.47 01/31/2025 16:37:38 79.93,-107.43 99.48 1.82 61
8 02/02/2025 20:14:15 -80.02, 17.77 80.99 02/02/2025 20:14:20 -80.02, 17.70 80.98 1.49 5
9 02/04/2025 23:49:53 80.12, 142.77 98.58 02/04/2025 23:51:03 80.12, 142.73 98.55 0.76 70
10 02/05/2025 00:40:32 -79.97, -48.34 81.72 02/05/2025 00:40:07 -79.97, -48.29 81.72 1.28 25
11 02/07/2025 04:16:09 80.05, 76.91 97.79 02/07/2025 04:16:49 80.06, 76.76 97.79 3.10 40



Historial Predications of SNOs between NOAA-21 and PACE
